[[{"header":{"parameterUnit":"m.s-1","parameterCategory":1,"la1":30.2991,"la2":30.254,"lo1":-89.0895,"lo2":-89.0444,"dx":0.0017,"dy":0.0017,"nx":28,"ny":28,"refTime":"2022-12-13T09:00:00:Z","depth":0,"parameterNumber":2,"parameterNumberName":"U-component_of_WINDS"},"data":[0,0,0,0,0,0,0,0,0,0,0,0,0,0,0,0,0,0,0,0,0,0,0,0,0,0,0,0,0,0,0,0,0,0,0,0,0,0,0,0,0,0,0,0,0,0,0,0,0,0,0,0,0,0,0,0,0,0,-3.2118,-3.2118,0,-3.2161,-3.2161,-3.2162,-3.2093,-3.209,-3.2088,-3.2085,-3.2134,-3.2137,-3.214,0,0,0,0,0,0,0,0,0,0,0,0,0,-3.1979,-3.1982,-3.2117,-3.2118,-3.2119,-3.2161,-3.2161,-3.2162,-3.2093,-3.209,-3.2087,-3.2084,-3.2132,-3.2137,-3.2141,0,0,0,0,0,0,0,0,0,0,0,0,0,-3.2033,-3.1983,-3.2117,-3.2089,-3.2087,-3.216,-3.2161,-3.2162,-3.2094,-3.209,-3.2086,-3.2083,-3.2131,-3.2136,-3.2141,-3.2245,0,0,-3.2157,-3.216,0,0,0,0,0,0,0,0,-3.203,-3.2038,-3.2093,-3.2091,-3.2089,-3.2117,-3.213,-3.219,-3.2094,-3.2091,-3.2085,-3.2081,-3.2131,-3.2136,-3.2152,-3.2248,-3.225,-3.2158,-3.2161,-3.2163,-3.2165,0,0,0,0,0,0,0,-3.2026,-3.2036,-3.2135,-3.2094,-3.2091,-3.2076,-3.2079,-3.2141,-3.2131,-3.2091,-3.2086,-3.2092,-3.213,-3.2148,-3.2153,-3.225,-3.2158,-3.2162,-3.2166,-3.2168,-3.2434,-3.2438,0,0,0,0,0,0,-3.2025,-3.2033,-3.2133,-3.2136,-3.205,-3.2081,-3.2085,-3.2112,-3.213,-3.2129,-3.2095,-3.2089,-3.214,-3.2147,-3.2154,-3.2278,-3.2163,-3.2168,-3.2171,-3.243,-3.2435,-3.2439,0,0,0,0,0,0,-3.2023,-3.2035,-3.2132,-3.2083,-3.2094,-3.2087,-3.2118,-3.2115,-3.2132,-3.2133,-3.2131,-3.2115,-3.2138,-3.2147,-3.2223,-3.2279,-3.2171,-3.2175,-3.2426,-3.2432,-3.2437,-3.2526,0,0,0,0,0,0,-3.2019,-3.2034,-3.2073,-3.2084,-3.2097,-3.2199,-3.2121,-3.2118,-3.2141,-3.2133,-3.2151,-3.2151,-3.2136,-3.2216,-3.2229,-3.2284,-3.2179,-3.2421,-3.2429,-3.2435,-3.2519,-3.2535,-3.2548,0,0,0,0,0,-3.2014,-3.2097,-3.2075,-3.2088,-3.2145,-3.2202,-3.2209,-3.2189,-3.2146,-3.2185,-3.2186,-3.215,-3.2271,-3.2224,-3.2238,-3.2296,-3.2417,-3.2426,-3.2435,-3.2512,-3.2531,-3.2548,0,0,0,0,0,0,-3.2093,-3.2098,-3.2074,-3.2163,-3.2182,-3.219,-3.2239,-3.2211,-3.2244,-3.2235,-3.221,-3.2215,-3.2297,-3.2304,-3.2252,-3.2398,-3.2337,-3.2349,-3.2391,-3.2409,-3.2424,-3.2421,-3.2184,0,0,0,0,0,-3.2121,-3.2166,-3.2168,-3.2246,-3.2257,-3.2247,-3.2271,-3.2253,-3.2273,-3.2282,-3.2288,-3.231,-3.2352,-3.2381,-3.242,-3.2519,-3.2523,-3.2566,-3.2581,-3.2593,-3.2604,-3.2658,-3.2677,-3.2469,-3.2468,-3.2468,0,0,-3.2179,-3.2187,-3.2217,-3.2262,-3.2275,-3.2324,-3.2254,-3.2308,-3.2344,-3.229,-3.2362,-3.2368,-3.239,-3.2479,-3.2518,-3.2487,-3.2662,-3.2604,-3.2614,-3.2618,-3.2669,-3.2689,-3.2706,-3.2475,-3.2473,-3.2472,0,0,-3.2309,-3.2319,-3.2386,-3.24,-3.2421,-3.2413,-3.2429,-3.2442,-3.2443,-3.2515,-3.2476,-3.2519,-3.2592,-3.261,-3.2629,-3.2767,-3.2736,-3.278,-3.2859,-3.2912,-3.2928,-3.2943,-3.2993,-3.3011,-3.2791,-3.2791,-3.2792,0,-3.2379,-3.2449,-3.2424,-3.248,-3.2502,-3.2454,-3.2522,-3.2538,-3.2571,-3.2588,-3.2553,-3.2645,-3.2656,-3.2749,-3.2782,-3.2799,-3.2817,-3.2779,-3.2927,-3.2942,-3.2955,-3.3002,-3.3021,-3.2797,-3.2796,-3.2796,-3.2795,0,-3.2534,-3.2583,-3.2635,-3.2667,-3.2694,-3.2756,-3.2742,-3.2773,-3.2753,-3.275,-3.2824,-3.2837,-3.2878,-3.2898,-3.288,-3.2989,-3.2969,-3.2931,-3.2869,-3.2981,-3.3025,-3.3043,-3.2804,-3.2802,-3.2801,-3.28,0,0,-3.2716,-3.2733,-3.2752,-3.2766,-3.2786,-3.2824,-3.2885,-3.2924,-3.2951,-3.2976,-3.3027,-3.309,-3.3055,-3.3077,-3.306,-3.3107,-3.3216,-3.3063,-3.3063,-3.3092,-3.3337,-3.3366,-3.3388,-3.3195,-3.3198,-3.3201,-3.3336,0,-3.2846,-3.2949,-3.2928,-3.303,-3.3076,-3.3031,-3.3084,-3.3103,-3.3101,-3.3141,-3.314,-3.3186,-3.3136,-3.3149,-3.3192,-3.3193,-3.3265,-3.3183,-3.3244,-3.3246,-3.324,-3.341,-3.3441,-3.3568,-3.3353,-3.3356,-3.3358,0,-3.3012,-3.3041,-3.3147,-3.316,-3.3178,-3.3226,-3.326,-3.3298,-3.3319,-3.3315,-3.3339,-3.3314,-3.3375,-3.3312,-3.3397,-3.3342,-3.3365,-3.337,-3.3374,-3.338,-3.3309,-3.3422,-3.3607,-3.3627,-3.3384,-3.3382,-3.338,0,-3.3135,-3.3201,-3.3273,-3.3287,-3.3303,-3.3338,-3.3346,-3.3363,-3.3388,-3.3419,-3.3435,-3.3473,-3.3494,-3.3525,-3.3511,-3.3466,-3.3599,-3.3534,-3.3599,-3.36,-3.363,-3.3628,-3.3823,-3.3644,-3.3643,-3.3643,-3.3643,0,-3.3283,-3.335,-3.3329,-3.3373,-3.3447,-3.3424,-3.3498,-3.3501,-3.3516,-3.3562,-3.3526,-3.3569,-3.3548,-3.3591,-3.358,-3.3653,-3.3663,-3.3662,-3.3659,-3.3666,-3.3666,-3.3682,-3.3673,-3.3648,-3.3647,-3.3646,-3.3645,0,-3.3433,-3.3422,-3.3498,-3.3506,-3.351,-3.3564,-3.3572,-3.3615,-3.361,-3.3668,-3.3681,-3.3675,-3.3723,-3.3712,-3.3765,-3.3758,-3.385,-3.3835,-3.3843,-3.384,-3.3905,-3.3899,-3.4117,-3.4145,-3.3947,-3.3949,-3.395,0,-3.3529,-3.3579,-3.3593,-3.362,-3.3631,-3.3676,-3.3701,-3.368,-3.3708,-3.3735,-3.3775,-3.3819,-3.3854,-3.3933,-3.3934,-3.3975,-3.3961,-3.4035,-3.3967,-3.3973,-3.3964,-3.3961,-3.3967,-3.4049,-3.4051,-3.4053,-3.4054,0,-3.37,-3.3692,-3.3729,-3.3765,-3.3796,-3.3823,-3.3847,-3.3872,-3.3853,-3.3886,-3.3934,-3.3961,-3.4015,-3.406,-3.4098,-3.4108,-3.4079,-3.4075,-3.4093,-3.4101,-3.4103,-3.4104,-3.388,-3.4071,-3.4069,-3.4068,-3.4067,-3.4066,-3.3827,-3.3869,-3.3886,-3.3929,-3.3945,-3.3968,-3.4008,-3.4009,-3.4048,-3.4089,-3.4075,-3.4131,-3.415,-3.4197,-3.4212,-3.4256,-3.4228,-3.4253,-3.426,-3.4266,-3.4275,-3.4096,-3.4263,-3.4262,-3.4262,-3.4261,-3.4261,0,-3.3997,-3.4005,-3.4045,-3.4079,-3.4113,-3.4081,-3.4106,-3.4138,-3.4186,-3.4207,-3.4241,-3.4297,-3.4341,-3.4346,-3.4387,-3.4422,-3.441,-3.4434,-3.4431,-3.4434,-3.4297,-3.4278,-3.4443,-3.4443,-3.4443,-3.4443,-3.4443,-3.4443,-3.4089,-3.416,-3.4154,-3.4233,-3.4241,-3.4294,-3.4312,-3.4334,-3.435,-3.4413,-3.4449,-3.4451,-3.4466,-3.4508,-3.4548,-3.4548,-3.4565,-3.4595,-3.459,-3.4462,-3.4444,-3.4427,-3.4409,-3.4599,-3.4599,-3.4724,-3.4726,-3.4726]},{"header":{"parameterUnit":"m.s-1","parameterCategory":1,"la1":30.2991,"la2":30.254,"lo1":-89.0895,"lo2":-89.0444,"dx":0.0017,"dy":0.0017,"nx":28,"ny":28,"refTime":"2022-12-13T09:00:00:Z","depth":0,"parameterNumber":3,"parameterNumberName":"V-component_of_WINDS"},"data":[0,0,0,0,0,0,0,0,0,0,0,0,0,0,0,0,0,0,0,0,0,0,0,0,0,0,0,0,0,0,0,0,0,0,0,0,0,0,0,0,0,0,0,0,0,0,0,0,0,0,0,0,0,0,0,0,0,0,-1.4441,-1.4442,0,-1.4489,-1.449,-1.4491,-1.4498,-1.4497,-1.4497,-1.4496,-1.4545,-1.4547,-1.4548,0,0,0,0,0,0,0,0,0,0,0,0,0,-1.4354,-1.4355,-1.4441,-1.4442,-1.4442,-1.4489,-1.449,-1.4491,-1.4498,-1.4497,-1.4497,-1.4496,-1.4544,-1.4546,-1.4548,0,0,0,0,0,0,0,0,0,0,0,0,0,-1.4396,-1.4356,-1.4441,-1.4452,-1.4453,-1.4489,-1.449,-1.4491,-1.4498,-1.4497,-1.4496,-1.4496,-1.4544,-1.4546,-1.4549,-1.4578,0,0,-1.4556,-1.4558,0,0,0,0,0,0,0,0,-1.4394,-1.4399,-1.4449,-1.4451,-1.4453,-1.4487,-1.4477,-1.452,-1.4498,-1.4481,-1.4496,-1.4495,-1.4526,-1.453,-1.454,-1.458,-1.4582,-1.4557,-1.4558,-1.4559,-1.456,0,0,0,0,0,0,0,-1.4391,-1.4397,-1.446,-1.445,-1.4452,-1.4453,-1.4459,-1.4485,-1.4506,-1.4482,-1.4483,-1.4488,-1.4527,-1.4538,-1.4542,-1.4583,-1.4557,-1.4559,-1.456,-1.4561,-1.4648,-1.4649,0,0,0,0,0,0,-1.4386,-1.4395,-1.4459,-1.4462,-1.4421,-1.4456,-1.4461,-1.4476,-1.4506,-1.451,-1.4489,-1.4489,-1.4534,-1.4539,-1.4543,-1.4579,-1.4559,-1.4562,-1.4563,-1.4647,-1.4648,-1.4649,0,0,0,0,0,0,-1.4384,-1.4392,-1.4457,-1.4428,-1.4437,-1.4458,-1.4475,-1.4478,-1.4489,-1.4511,-1.4515,-1.4497,-1.4534,-1.454,-1.4569,-1.4581,-1.4563,-1.4565,-1.4646,-1.4648,-1.4649,-1.4651,0,0,0,0,0,0,-1.4382,-1.4391,-1.4402,-1.4429,-1.4438,-1.4482,-1.4475,-1.4479,-1.4494,-1.4493,-1.452,-1.4523,-1.4534,-1.4565,-1.4572,-1.4584,-1.4567,-1.4645,-1.4647,-1.4648,-1.465,-1.4652,-1.4654,0,0,0,0,0,-1.4378,-1.4401,-1.4403,-1.4411,-1.4453,-1.4483,-1.4488,-1.45,-1.4494,-1.4506,-1.452,-1.4522,-1.4579,-1.4568,-1.4575,-1.4589,-1.4645,-1.4647,-1.4648,-1.4649,-1.4651,-1.4654,0,0,0,0,0,0,-1.4375,-1.4405,-1.4407,-1.4439,-1.4458,-1.4484,-1.4499,-1.4502,-1.4523,-1.4522,-1.4536,-1.4542,-1.457,-1.4582,-1.457,-1.4618,-1.4611,-1.4614,-1.4609,-1.4612,-1.4614,-1.461,-1.4569,0,0,0,0,0,-1.4379,-1.44,-1.4425,-1.445,-1.446,-1.4478,-1.4491,-1.4498,-1.4519,-1.4527,-1.4543,-1.4563,-1.4585,-1.4599,-1.4621,-1.4652,-1.4657,-1.4664,-1.4666,-1.4668,-1.467,-1.4687,-1.4691,-1.4655,-1.4655,-1.4655,0,0,-1.4385,-1.4404,-1.4417,-1.445,-1.4466,-1.4488,-1.4484,-1.4508,-1.4524,-1.453,-1.4559,-1.4572,-1.4594,-1.4624,-1.4639,-1.4636,-1.4682,-1.467,-1.4671,-1.4673,-1.469,-1.4693,-1.4696,-1.4656,-1.4656,-1.4655,0,0,-1.4408,-1.4425,-1.4448,-1.4464,-1.4488,-1.4499,-1.4505,-1.453,-1.4539,-1.4568,-1.4573,-1.4592,-1.463,-1.4646,-1.4658,-1.4687,-1.469,-1.4694,-1.4704,-1.472,-1.4723,-1.4726,-1.4736,-1.4739,-1.4696,-1.4696,-1.4696,0,-1.4413,-1.4447,-1.4459,-1.4483,-1.4497,-1.4504,-1.4527,-1.4542,-1.4571,-1.4581,-1.4577,-1.4624,-1.464,-1.4674,-1.4681,-1.4691,-1.4698,-1.4691,-1.4722,-1.4725,-1.4727,-1.4737,-1.4741,-1.4697,-1.4697,-1.4697,-1.4697,0,-1.4452,-1.4475,-1.4491,-1.4519,-1.4535,-1.4559,-1.4574,-1.4589,-1.4595,-1.4606,-1.4636,-1.4655,-1.468,-1.4689,-1.4695,-1.4723,-1.4721,-1.4719,-1.4712,-1.4731,-1.474,-1.4744,-1.4697,-1.4697,-1.4697,-1.4697,0,0,-1.4475,-1.451,-1.4515,-1.4528,-1.4555,-1.4573,-1.4596,-1.4621,-1.4633,-1.4653,-1.4673,-1.4705,-1.4704,-1.4718,-1.4726,-1.474,-1.4762,-1.4737,-1.4738,-1.4741,-1.4794,-1.4795,-1.4799,-1.4764,-1.4764,-1.4765,-1.4792,0,-1.4501,-1.4543,-1.4554,-1.4589,-1.4611,-1.4617,-1.4637,-1.4656,-1.4667,-1.4687,-1.4699,-1.4721,-1.4718,-1.4727,-1.4742,-1.4756,-1.4772,-1.4754,-1.4782,-1.4782,-1.4776,-1.4804,-1.4805,-1.483,-1.4796,-1.4796,-1.4797,0,-1.4537,-1.4558,-1.4595,-1.4619,-1.4628,-1.4646,-1.467,-1.4688,-1.4709,-1.4717,-1.4733,-1.4739,-1.4763,-1.4755,-1.4788,-1.4776,-1.4788,-1.4796,-1.4797,-1.48,-1.4791,-1.4807,-1.4838,-1.4841,-1.4803,-1.4802,-1.4802,0,-1.4549,-1.4587,-1.4614,-1.4625,-1.4654,-1.4666,-1.4678,-1.4698,-1.4713,-1.4733,-1.4742,-1.4765,-1.4778,-1.4796,-1.4808,-1.4801,-1.484,-1.4833,-1.4846,-1.4846,-1.4854,-1.4854,-1.4887,-1.4862,-1.4862,-1.4862,-1.4862,0,-1.4577,-1.46,-1.462,-1.4637,-1.4662,-1.4675,-1.4699,-1.4712,-1.473,-1.4749,-1.4756,-1.4773,-1.4789,-1.4808,-1.4818,-1.4844,-1.4849,-1.4856,-1.4858,-1.4855,-1.4854,-1.4863,-1.4862,-1.4863,-1.4863,-1.4863,-1.4863,0,-1.4596,-1.461,-1.464,-1.4665,-1.4671,-1.4689,-1.4709,-1.4726,-1.4737,-1.4761,-1.4768,-1.4786,-1.4809,-1.4823,-1.4853,-1.486,-1.4888,-1.489,-1.4881,-1.4882,-1.4895,-1.4893,-1.4935,-1.4941,-1.4912,-1.4912,-1.4913,0,-1.4612,-1.463,-1.4656,-1.4669,-1.4682,-1.4703,-1.4718,-1.4731,-1.4746,-1.477,-1.4784,-1.4807,-1.4827,-1.4864,-1.488,-1.4903,-1.4905,-1.4918,-1.4908,-1.4905,-1.4905,-1.4904,-1.4905,-1.4919,-1.492,-1.492,-1.492,0,-1.464,-1.4647,-1.4667,-1.4691,-1.4708,-1.4726,-1.4745,-1.4756,-1.4772,-1.4788,-1.4812,-1.4827,-1.4857,-1.4881,-1.4905,-1.4917,-1.4921,-1.4923,-1.4927,-1.4924,-1.4918,-1.4922,-1.4885,-1.4922,-1.4922,-1.4922,-1.4921,-1.4921,-1.4658,-1.4674,-1.4695,-1.4718,-1.4733,-1.475,-1.4767,-1.4781,-1.4801,-1.4826,-1.4833,-1.4858,-1.4878,-1.4911,-1.4924,-1.4943,-1.4941,-1.4948,-1.4949,-1.4951,-1.4951,-1.4915,-1.4948,-1.4948,-1.4948,-1.4948,-1.4948,0,-1.4687,-1.47,-1.4721,-1.4747,-1.4765,-1.4767,-1.4788,-1.4802,-1.4825,-1.4843,-1.4862,-1.489,-1.4912,-1.493,-1.4953,-1.4966,-1.4968,-1.4971,-1.4971,-1.4973,-1.4951,-1.4945,-1.4969,-1.4969,-1.4969,-1.4969,-1.4969,-1.4969,-1.4703,-1.473,-1.4739,-1.4773,-1.4786,-1.4811,-1.4823,-1.4839,-1.4853,-1.4884,-1.4903,-1.4914,-1.4932,-1.4957,-1.4978,-1.4982,-1.499,-1.4993,-1.4998,-1.4977,-1.4975,-1.4973,-1.4967,-1.4995,-1.4995,-1.5018,-1.5019,-1.5019]}]]